When you browse on this site, cookies collect data to enhance your experience and personalize the content and advertising you see.
Visit our Privacy Policy to learn more. By continuing to use the site, you agree to this use of cookies and data.
EN

Hourly Weather Morgan Hill

Today, 14 August, Friday

Time Temperature Precipitation Wind Pressure Humidity
00:00 +24°C° 0 mm 1 mps 740 mmHg 48%
01:00 +23°C° 0 mm 1 mps 740 mmHg 49%
02:00 +24°C° 0 mm 1 mps 740 mmHg 47%
03:00 +24°C° 0 mm 1 mps 740 mmHg 46%
04:00 +24°C° 0 mm 1 mps 739 mmHg 44%
05:00 +26°C° 0 mm 1 mps 740 mmHg 41%
06:00 +28°C° 0 mm 1 mps 740 mmHg 37%
07:00 +29°C° 0 mm 1 mps 740 mmHg 34%
08:00 +33°C° 0 mm 1 mps 740 mmHg 29%
09:00 +36°C° 0 mm 1 mps 741 mmHg 24%
10:00 +40°C° 0 mm 1 mps 741 mmHg 19%
11:00 +41°C° 0 mm 1 mps 740 mmHg 18%
12:00 +43°C° 0 mm 2 mps 740 mmHg 17%
13:00 +45°C° 0 mm 2 mps 740 mmHg 15%
14:00 +42°C° 0 mm 2 mps 739 mmHg 18%
15:00 +40°C° 0 mm 2 mps 739 mmHg 20%
16:00 +39°C° 0 mm 2 mps 738 mmHg 22%
17:00 +35°C° 0 mm 2 mps 738 mmHg 32%
18:00 +29°C° 0 mm 2 mps 738 mmHg 41%
19:00 +25°C° 0 mm 1 mps 738 mmHg 50%
20:00 +24°C° 0 mm 1 mps 738 mmHg 54%
21:00 +23°C° 0 mm 1 mps 739 mmHg 58%
22:00 +21°C° 0 mm 1 mps 739 mmHg 62%
23:00 +19°C° 0 mm 0 mps 739 mmHg 61%

Tomorrow, 15 August, Saturday

Time Temperature Precipitation Wind Pressure Humidity
00:00 +19°C° 0 mm 0 mps 739 mmHg 61%
01:00 +19°C° 0 mm 0 mps 739 mmHg 60%
02:00 +19°C° 0 mm 0 mps 739 mmHg 60%
03:00 +19°C° 0 mm 0 mps 739 mmHg 59%
04:00 +19°C° 0 mm 0 mps 739 mmHg 59%
05:00 +21°C° 0 mm 0 mps 740 mmHg 55%
06:00 +23°C° 0 mm 0 mps 740 mmHg 50%
07:00 +24°C° 0 mm 0 mps 740 mmHg 45%
08:00 +29°C° 0 mm 1 mps 740 mmHg 39%
09:00 +32°C° 0 mm 1 mps 741 mmHg 33%
10:00 +35°C° 0 mm 1 mps 741 mmHg 27%
11:00 +38°C° 0 mm 2 mps 741 mmHg 26%
12:00 +39°C° 0 mm 2 mps 741 mmHg 24%
13:00 +40°C° 0 mm 2 mps 741 mmHg 23%
14:00 +39°C° 0 mm 3 mps 740 mmHg 24%
15:00 +38°C° 0 mm 3 mps 739 mmHg 26%
16:00 +37°C° 0 mm 3 mps 739 mmHg 28%
17:00 +34°C° 0 mm 2 mps 739 mmHg 35%
18:00 +30°C° 0 mm 2 mps 739 mmHg 42%
19:00 +26°C° 0 mm 1 mps 739 mmHg 49%
20:00 +25°C° 0 mm 1 mps 739 mmHg 52%
21:00 +24°C° 0 mm 1 mps 739 mmHg 55%
22:00 +23°C° 0 mm 1 mps 739 mmHg 58%
23:00 +23°C° 0 mm 1 mps 739 mmHg 58%

Day after tomorrow, 16 August, Sunday

Time Temperature Precipitation Wind Pressure Humidity
00:00 +23°C° 0 mm 1 mps 739 mmHg 59%
01:00 +23°C° 0 mm 1 mps 739 mmHg 59%
02:00 +22°C° 0 mm 1 mps 739 mmHg 60%
03:00 +22°C° 0 mm 1 mps 739 mmHg 61%
04:00 +22°C° 0 mm 1 mps 739 mmHg 62%
05:00 +23°C° 0 mm 1 mps 739 mmHg 58%
06:00 +24°C° 0 mm 1 mps 740 mmHg 54%
07:00 +25°C° 0 mm 1 mps 740 mmHg 51%
08:00 +28°C° 0.3 mm 1 mps 741 mmHg 45%
09:00 +30°C° 0.3 mm 1 mps 741 mmHg 40%
10:00 +34°C° 0.3 mm 2 mps 741 mmHg 35%
11:00 +35°C° 0.2 mm 2 mps 741 mmHg 33%
12:00 +36°C° 0.2 mm 2 mps 741 mmHg 31%
13:00 +37°C° 0.2 mm 2 mps 741 mmHg 29%
14:00 +37°C° 0.1 mm 2 mps 741 mmHg 29%
15:00 +36°C° 0.1 mm 2 mps 740 mmHg 29%
16:00 +36°C° 0.1 mm 3 mps 740 mmHg 29%
17:00 +32°C° 0 mm 2 mps 740 mmHg 34%
18:00 +29°C° 0 mm 2 mps 740 mmHg 39%
19:00 +26°C° 0 mm 2 mps 740 mmHg 44%
20:00 +25°C° 0 mm 1 mps 740 mmHg 43%
21:00 +25°C° 0 mm 1 mps 741 mmHg 42%
22:00 +24°C° 0 mm 1 mps 741 mmHg 40%
23:00 +24°C° 0 mm 1 mps 741 mmHg 39%

17 August, Monday

Time Temperature Precipitation Wind Pressure Humidity
00:00 +24°C° 0 mm 1 mps 741 mmHg 38%
01:00 +24°C° 0 mm 1 mps 741 mmHg 37%
02:00 +24°C° 0 mm 1 mps 740 mmHg 37%
03:00 +24°C° 0 mm 1 mps 740 mmHg 36%
04:00 +23°C° 0 mm 1 mps 740 mmHg 35%
05:00 +25°C° 0 mm 1 mps 740 mmHg 34%
06:00 +26°C° 0 mm 1 mps 741 mmHg 34%
07:00 +27°C° 0 mm 1 mps 741 mmHg 33%
08:00 +30°C° 0 mm 1 mps 742 mmHg 29%
09:00 +33°C° 0 mm 1 mps 742 mmHg 25%
10:00 +36°C° 0 mm 1 mps 742 mmHg 21%
11:00 +39°C° 0 mm 1 mps 742 mmHg 20%
12:00 +40°C° 0 mm 2 mps 742 mmHg 19%
13:00 +41°C° 0 mm 2 mps 741 mmHg 19%
14:00 +40°C° 0 mm 2 mps 741 mmHg 19%
15:00 +39°C° 0 mm 2 mps 740 mmHg 20%
16:00 +39°C° 0 mm 3 mps 740 mmHg 21%
17:00 +35°C° 0 mm 2 mps 740 mmHg 25%
18:00 +31°C° 0 mm 2 mps 740 mmHg 30%
19:00 +28°C° 0 mm 2 mps 739 mmHg 34%
20:00 +27°C° 0 mm 1 mps 739 mmHg 35%
21:00 +26°C° 0 mm 1 mps 740 mmHg 35%
22:00 +26°C° 0 mm 1 mps 740 mmHg 36%
23:00 +25°C° 0 mm 1 mps 740 mmHg 37%

18 August, Tuesday

Time Temperature Precipitation Wind Pressure Humidity
00:00 +25°C° 0 mm 1 mps 739 mmHg 39%
01:00 +24°C° 0 mm 1 mps 739 mmHg 40%
02:00 +24°C° 0 mm 1 mps 739 mmHg 41%
03:00 +24°C° 0 mm 1 mps 739 mmHg 42%
04:00 +22°C° 0 mm 0 mps 739 mmHg 43%
05:00 +23°C° 0 mm 0 mps 740 mmHg 41%
06:00 +24°C° 0 mm 0 mps 740 mmHg 39%
07:00 +26°C° 0 mm 0 mps 741 mmHg 37%
08:00 +31°C° 0 mm 1 mps 741 mmHg 31%
09:00 +35°C° 0 mm 1 mps 741 mmHg 25%
10:00 +40°C° 0 mm 1 mps 741 mmHg 19%
11:00 +40°C° 0 mm 2 mps 741 mmHg 19%
12:00 +41°C° 0 mm 2 mps 740 mmHg 18%
13:00 +43°C° 0 mm 3 mps 740 mmHg 17%
14:00 +43°C° 0 mm 3 mps 739 mmHg 18%
15:00 +42°C° 0 mm 3 mps 739 mmHg 19%
16:00 +40°C° 0 mm 3 mps 738 mmHg 20%
17:00 +36°C° 0 mm 2 mps 738 mmHg 25%
18:00 +32°C° 0 mm 2 mps 738 mmHg 30%
19:00 +28°C° 0 mm 1 mps 738 mmHg 35%
20:00 +27°C° 0 mm 1 mps 738 mmHg 36%
21:00 +26°C° 0 mm 1 mps 738 mmHg 37%
22:00 +25°C° 0 mm 1 mps 738 mmHg 38%
23:00 +25°C° 0 mm 1 mps 738 mmHg 38%

19 August, Wednesday

Time Temperature Precipitation Wind Pressure Humidity
00:00 +25°C° 0 mm 1 mps 738 mmHg 38%
01:00 +22°C° 0 mm 0 mps 738 mmHg 39%
02:00 +22°C° 0 mm 0 mps 738 mmHg 39%
03:00 +24°C° 0 mm 1 mps 738 mmHg 40%
04:00 +23°C° 0 mm 1 mps 738 mmHg 40%
05:00 +23°C° 0 mm 0 mps 738 mmHg 38%
06:00 +24°C° 0 mm 0 mps 738 mmHg 35%
07:00 +26°C° 0 mm 0 mps 739 mmHg 33%
08:00 +31°C° 0 mm 1 mps 739 mmHg 28%
09:00 +34°C° 0 mm 1 mps 739 mmHg 24%
10:00 +37°C° 0 mm 1 mps 739 mmHg 19%
11:00 +39°C° 0 mm 2 mps 739 mmHg 18%
12:00 +40°C° 0 mm 2 mps 738 mmHg 18%
13:00 +42°C° 0 mm 3 mps 738 mmHg 17%
14:00 +42°C° 0 mm 3 mps 737 mmHg 18%
15:00 +40°C° 0 mm 3 mps 737 mmHg 18%
16:00 +40°C° 0 mm 4 mps 736 mmHg 19%
17:00 +36°C° 0 mm 3 mps 736 mmHg 23%
18:00 +32°C° 0 mm 2 mps 736 mmHg 27%
19:00 +29°C° 0 mm 2 mps 736 mmHg 31%
20:00 +27°C° 0 mm 2 mps 737 mmHg 33%
21:00 +26°C° 0 mm 1 mps 737 mmHg 34%
22:00 +25°C° 0 mm 1 mps 737 mmHg 35%
23:00 +25°C° 0 mm 1 mps 737 mmHg 35%
Show more